| time (UTC) | temp F | wind direction | speed MPH | gust MPH | rain 1hr in | rain 24hr in | rain mn in | humidity % | barometer mb |
| 20260510132405 | 49 | 209 | 0.0 | 0.0 | 0.00 | 0.01 | 0.00 | 89 | 1030.8 |
| 20260510131904 | 49 | 209 | 0.0 | 0.0 | 0.00 | 0.01 | 0.00 | 89 | 1030.8 |
| 20260510131405 | 49 | 209 | 0.0 | 0.0 | 0.00 | 0.01 | 0.00 | 89 | 1030.8 |
| 20260510130905 | 49 | 209 | 0.0 | 0.0 | 0.00 | 0.01 | 0.00 | 89 | 1030.8 |
| 20260510130405 | 49 | 209 | 0.0 | 0.0 | 0.00 | 0.01 | 0.00 | 89 | 1030.8 |
| 20260510125905 | 49 | 209 | 0.0 | 0.0 | 0.00 | 0.01 | 0.00 | 89 | 1030.9 |
| 20260510125405 | 49 | 209 | 0.0 | 0.0 | 0.00 | 0.01 | 0.00 | 89 | 1030.9 |
| 20260510124905 | 49 | 209 | 0.0 | 0.0 | 0.00 | 0.01 | 0.00 | 89 | 1030.9 |
| 20260510124405 | 49 | 209 | 0.0 | 0.0 | 0.00 | 0.01 | 0.00 | 89 | 1030.9 |
| 20260510123905 | 49 | 209 | 0.0 | 0.0 | 0.00 | 0.01 | 0.00 | 89 | 1030.9 |
| 20260510123405 | 49 | 209 | 0.0 | 0.0 | 0.00 | 0.01 | 0.00 | 89 | 1031.0 |
| 20260510122905 | 50 | 209 | 0.0 | 0.0 | 0.00 | 0.01 | 0.00 | 89 | 1031.0 |
| 20260510122405 | 50 | 209 | 0.0 | 0.0 | 0.00 | 0.01 | 0.00 | 89 | 1031.0 |
| 20260510121905 | 50 | 209 | 0.0 | 0.0 | 0.00 | 0.01 | 0.00 | 89 | 1031.0 |
| 20260510121405 | 50 | 209 | 0.0 | 0.0 | 0.00 | 0.01 | 0.00 | 88 | 1031.0 |
| 20260510120904 | 50 | 209 | 0.0 | 0.0 | 0.00 | 0.01 | 0.00 | 89 | 1030.9 |
| 20260510120405 | 50 | 209 | 0.0 | 0.0 | 0.00 | 0.01 | 0.00 | 89 | 1030.9 |
| 20260510115905 | 50 | 209 | 0.0 | 0.0 | 0.00 | 0.01 | 0.00 | 88 | 1030.9 |
| 20260510115405 | 50 | 209 | 0.0 | 0.0 | 0.00 | 0.01 | 0.00 | 88 | 1030.9 |
| 20260510114905 | 50 | 209 | 0.0 | 0.0 | 0.00 | 0.01 | 0.00 | 88 | 1030.9 |
| 20260510114405 | 50 | 209 | 0.0 | 0.0 | 0.00 | 0.01 | 0.00 | 88 | 1030.9 |
| 20260510113905 | 50 | 209 | 0.0 | 0.0 | 0.00 | 0.01 | 0.00 | 88 | 1030.8 |
| 20260510113405 | 50 | 209 | 0.0 | 0.0 | 0.00 | 0.01 | 0.00 | 88 | 1030.7 |
| 20260510112905 | 51 | 209 | 0.0 | 0.0 | 0.00 | 0.01 | 0.00 | 88 | 1030.8 |
| 20260510112405 | 51 | 209 | 0.0 | 0.0 | 0.00 | 0.01 | 0.00 | 88 | 1030.7 |
| 20260510111904 | 51 | 209 | 0.0 | 0.0 | 0.00 | 0.01 | 0.00 | 88 | 1030.7 |
| 20260510111404 | 51 | 209 | 0.0 | 0.0 | 0.00 | 0.01 | 0.00 | 88 | 1030.7 |
| 20260510110905 | 52 | 209 | 0.0 | 0.0 | 0.00 | 0.01 | 0.00 | 88 | 1030.7 |
| 20260510110405 | 52 | 209 | 0.0 | 0.0 | 0.00 | 0.01 | 0.00 | 88 | 1030.6 |
| 20260510105905 | 52 | 209 | 0.0 | 0.0 | 0.00 | 0.01 | 0.00 | 88 | 1030.6 |
| 20260510105404 | 52 | 209 | 0.0 | 0.0 | 0.00 | 0.01 | 0.00 | 88 | 1030.6 |
| 20260510104905 | 52 | 209 | 0.0 | 0.0 | 0.00 | 0.01 | 0.00 | 88 | 1030.7 |
| 20260510104405 | 52 | 209 | 0.0 | 0.0 | 0.00 | 0.01 | 0.00 | 88 | 1030.6 |
| 20260510103905 | 52 | 209 | 0.0 | 0.0 | 0.00 | 0.01 | 0.00 | 88 | 1030.6 |
| 20260510103404 | 52 | 209 | 0.0 | 1.0 | 0.00 | 0.01 | 0.00 | 88 | 1030.5 |
| 20260510102905 | 52 | 209 | 0.0 | 1.0 | 0.00 | 0.01 | 0.00 | 87 | 1030.4 |
| 20260510102405 | 53 | 209 | 1.0 | 2.0 | 0.00 | 0.01 | 0.00 | 87 | 1030.4 |
| 20260510101905 | 53 | 209 | 1.0 | 2.0 | 0.00 | 0.01 | 0.00 | 87 | 1030.4 |
| 20260510101405 | 53 | 209 | 1.0 | 2.0 | 0.00 | 0.01 | 0.00 | 87 | 1030.4 |
| 20260510100905 | 53 | 209 | 0.0 | 1.0 | 0.00 | 0.01 | 0.00 | 87 | 1030.5 |
| 20260510100405 | 54 | 209 | 1.0 | 2.0 | 0.00 | 0.01 | 0.00 | 87 | 1030.5 |
| 20260510095904 | 54 | 209 | 2.0 | 3.0 | 0.00 | 0.01 | 0.00 | 87 | 1030.4 |
| 20260510095405 | 54 | 209 | 2.0 | 3.0 | 0.00 | 0.01 | 0.00 | 87 | 1030.4 |
| 20260510094905 | 55 | 209 | 2.0 | 3.0 | 0.00 | 0.01 | 0.00 | 87 | 1030.4 |
| 20260510094405 | 55 | 207 | 3.0 | 5.0 | 0.00 | 0.01 | 0.00 | 87 | 1030.3 |
| 20260510093905 | 55 | 217 | 3.0 | 5.0 | 0.00 | 0.01 | 0.00 | 87 | 1030.2 |
| 20260510093404 | 54 | 222 | 2.0 | 3.0 | 0.00 | 0.01 | 0.00 | 87 | 1030.2 |
| 20260510092905 | 54 | 224 | 2.0 | 3.0 | 0.00 | 0.01 | 0.00 | 87 | 1030.2 |
| 20260510092405 | 54 | 231 | 2.0 | 3.0 | 0.00 | 0.01 | 0.00 | 87 | 1030.1 |
| 20260510091905 | 55 | 232 | 1.0 | 2.0 | 0.00 | 0.01 | 0.00 | 87 | 1030.0 |
| 20260510091405 | 55 | 232 | 2.0 | 3.0 | 0.00 | 0.01 | 0.00 | 86 | 1030.0 |
| 20260510090904 | 55 | 233 | 3.0 | 3.0 | 0.00 | 0.01 | 0.00 | 87 | 1029.9 |
| 20260510090404 | 55 | 236 | 1.0 | 3.0 | 0.00 | 0.01 | 0.00 | 86 | 1029.8 |
| 20260510085905 | 55 | 218 | 2.0 | 5.0 | 0.00 | 0.01 | 0.00 | 86 | 1029.8 |
| 20260510085404 | 56 | 203 | 0.0 | 0.0 | 0.00 | 0.01 | 0.00 | 85 | 1029.7 |
| 20260510084905 | 56 | 203 | 0.0 | 0.0 | 0.00 | 0.01 | 0.00 | 85 | 1029.6 |
| 20260510084404 | 57 | 203 | 0.0 | 0.0 | 0.00 | 0.01 | 0.00 | 84 | 1029.5 |
| 20260510083904 | 57 | 203 | 0.0 | 0.0 | 0.00 | 0.01 | 0.00 | 83 | 1029.4 |
| 20260510083405 | 57 | 203 | 0.0 | 0.0 | 0.00 | 0.01 | 0.00 | 83 | 1029.4 |
| 20260510082904 | 58 | 203 | 0.0 | 0.0 | 0.00 | 0.01 | 0.00 | 83 | 1029.4 |
| 20260510082404 | 58 | 203 | 0.0 | 0.0 | 0.00 | 0.01 | 0.00 | 83 | 1029.3 |
| 20260510081905 | 58 | 203 | 0.0 | 0.0 | 0.00 | 0.01 | 0.00 | 83 | 1029.3 |
| 20260510081404 | 59 | 203 | 0.0 | 0.0 | 0.00 | 0.01 | 0.00 | 82 | 1029.3 |
| 20260510080904 | 59 | 203 | 0.0 | 0.0 | 0.00 | 0.01 | 0.00 | 82 | 1029.3 |
| 20260510080404 | 59 | 203 | 0.0 | 0.0 | 0.00 | 0.01 | 0.00 | 81 | 1029.3 |
| 20260510075905 | 60 | 203 | 0.0 | 0.0 | 0.00 | 0.01 | 0.00 | 80 | 1029.2 |
| 20260510075404 | 60 | 203 | 0.0 | 0.0 | 0.00 | 0.01 | 0.00 | 80 | 1029.0 |
| 20260510074905 | 61 | 203 | 0.0 | 1.0 | 0.00 | 0.01 | 0.00 | 79 | 1029.0 |
| 20260510074404 | 61 | 203 | 1.0 | 2.0 | 0.00 | 0.01 | 0.00 | 79 | 1028.9 |
| 20260510073904 | 62 | 203 | 2.0 | 3.0 | 0.00 | 0.01 | 0.00 | 78 | 1028.9 |
| 20260510073404 | 62 | 203 | 2.0 | 3.0 | 0.00 | 0.01 | 0.00 | 78 | 1028.9 |
| 20260510072904 | 62 | 203 | 2.0 | 3.0 | 0.00 | 0.01 | 0.00 | 77 | 1028.8 |
| 20260510072405 | 62 | 203 | 2.0 | 3.0 | 0.00 | 0.01 | 0.00 | 77 | 1028.8 |
| 20260510071905 | 63 | 203 | 2.0 | 3.0 | 0.00 | 0.01 | 0.00 | 77 | 1028.8 |
| 20260510071405 | 63 | 203 | 2.0 | 3.0 | 0.00 | 0.01 | 0.00 | 76 | 1028.8 |
| 20260510070905 | 63 | 203 | 2.0 | 3.0 | 0.00 | 0.01 | 0.00 | 76 | 1028.8 |
| 20260510070405 | 63 | 203 | 2.0 | 3.0 | 0.00 | 0.01 | 0.00 | 75 | 1028.8 |
| 20260510065904 | 63 | 198 | 2.0 | 3.0 | 0.00 | 0.01 | 0.00 | 75 | 1028.8 |
| 20260510065405 | 64 | 193 | 2.0 | 3.0 | 0.00 | 0.01 | 0.00 | 75 | 1028.7 |
| 20260510064904 | 64 | 193 | 3.0 | 3.0 | 0.00 | 0.01 | 0.00 | 75 | 1028.7 |
| 20260510064405 | 64 | 184 | 2.0 | 3.0 | 0.00 | 0.01 | 0.00 | 75 | 1028.8 |
| 20260510063904 | 64 | 178 | 2.0 | 3.0 | 0.00 | 0.01 | 0.00 | 74 | 1028.8 |
| 20260510063404 | 64 | 180 | 3.0 | 5.0 | 0.00 | 0.01 | 0.00 | 75 | 1028.8 |
| 20260510062905 | 64 | 175 | 3.0 | 3.0 | 0.00 | 0.01 | 0.00 | 75 | 1028.7 |
| 20260510062405 | 64 | 173 | 2.0 | 3.0 | 0.00 | 0.01 | 0.00 | 74 | 1028.7 |
| 20260510061905 | 64 | 174 | 2.0 | 3.0 | 0.00 | 0.01 | 0.00 | 75 | 1028.8 |
| 20260510061404 | 64 | 173 | 2.0 | 3.0 | 0.00 | 0.01 | 0.00 | 75 | 1028.8 |
| 20260510060905 | 64 | 174 | 0.0 | 3.0 | 0.00 | 0.01 | 0.00 | 75 | 1028.8 |
| 20260510060404 | 64 | 187 | 3.0 | 5.0 | 0.00 | 0.01 | 0.00 | 75 | 1028.8 |
| 20260510055904 | 64 | 203 | 2.0 | 5.0 | 0.00 | 0.01 | 0.00 | 75 | 1028.8 |
| 20260510055404 | 64 | 172 | 3.0 | 5.0 | 0.00 | 0.01 | 0.00 | 75 | 1028.8 |
| 20260510054905 | 64 | 193 | 0.0 | 3.0 | 0.00 | 0.01 | 0.00 | 76 | 1028.8 |
| 20260510054404 | 64 | 193 | 2.0 | 3.0 | 0.00 | 0.01 | 0.00 | 76 | 1028.8 |
| 20260510053905 | 64 | 160 | 3.0 | 5.0 | 0.00 | 0.01 | 0.00 | 75 | 1028.8 |
| 20260510053405 | 63 | 249 | 2.0 | 3.0 | 0.00 | 0.01 | 0.00 | 76 | 1028.8 |
| 20260510052904 | 63 | 247 | 2.0 | 5.0 | 0.00 | 0.01 | 0.00 | 75 | 1028.8 |
| 20260510052404 | 63 | 213 | 2.0 | 5.0 | 0.00 | 0.01 | 0.00 | 76 | 1028.9 |
| 20260510051905 | 63 | 198 | 2.0 | 3.0 | 0.00 | 0.01 | 0.00 | 77 | 1028.8 |
| 20260510051404 | 63 | 204 | 2.0 | 5.0 | 0.00 | 0.01 | 0.00 | 77 | 1028.8 |
| 20260510050904 | 63 | 212 | 2.0 | 5.0 | 0.00 | 0.01 | 0.00 | 76 | 1028.9 |
| 20260510050404 | 63 | 286 | 4.0 | 6.0 | 0.00 | 0.01 | 0.00 | 77 | 1028.9 |
| 20260510045905 | 63 | 260 | 1.0 | 5.0 | 0.00 | 0.01 | 0.00 | 77 | 1028.9 |
| 20260510045404 | 62 | 222 | 1.0 | 5.0 | 0.00 | 0.01 | 0.00 | 77 | 1028.9 |
| 20260510044904 | 62 | 263 | 2.0 | 3.0 | 0.00 | 0.01 | 0.00 | 78 | 1028.9 |
| 20260510044404 | 62 | 263 | 3.0 | 7.0 | 0.00 | 0.01 | 0.00 | 78 | 1028.9 |
| 20260510043904 | 62 | 208 | 2.0 | 3.0 | 0.00 | 0.01 | 0.00 | 79 | 1029.0 |
| 20260510043405 | 62 | 198 | 2.0 | 3.0 | 0.00 | 0.01 | 0.00 | 78 | 1029.0 |
| 20260510042905 | 62 | 214 | 2.0 | 3.0 | 0.00 | 0.01 | 0.00 | 79 | 1029.0 |
| 20260510042404 | 61 | 219 | 2.0 | 3.0 | 0.00 | 0.01 | 0.00 | 79 | 1029.0 |
| 20260510041904 | 61 | 234 | 2.0 | 3.0 | 0.00 | 0.01 | 0.00 | 79 | 1029.1 |
| 20260510041404 | 61 | 236 | 2.0 | 3.0 | 0.00 | 0.01 | 0.00 | 80 | 1029.1 |
| 20260510040904 | 61 | 241 | 2.0 | 3.0 | 0.00 | 0.01 | 0.00 | 81 | 1029.2 |
| 20260510040405 | 61 | 216 | 0.0 | 3.0 | 0.00 | 0.01 | 0.00 | 82 | 1029.2 |
| 20260510035905 | 61 | 216 | 1.0 | 3.0 | 0.00 | 0.01 | 0.00 | 82 | 1029.2 |
| 20260510035404 | 60 | 198 | 2.0 | 3.0 | 0.00 | 0.01 | 0.00 | 82 | 1029.2 |
| 20260510034905 | 60 | 193 | 3.0 | 3.0 | 0.00 | 0.01 | 0.00 | 82 | 1029.2 |
| 20260510034405 | 60 | 193 | 3.0 | 5.0 | 0.00 | 0.01 | 0.00 | 82 | 1029.3 |
| 20260510033905 | 60 | 176 | 1.0 | 3.0 | 0.00 | 0.01 | 0.00 | 83 | 1029.4 |
| 20260510033404 | 59 | 282 | 2.0 | 6.0 | 0.00 | 0.01 | 0.00 | 84 | 1029.4 |
| 20260510032904 | 59 | 273 | 1.0 | 6.0 | 0.00 | 0.01 | 0.00 | 84 | 1029.5 |
| 20260510032404 | 58 | 174 | 0.0 | 3.0 | 0.00 | 0.01 | 0.00 | 85 | 1029.5 |
| 20260510031904 | 58 | 174 | 2.0 | 3.0 | 0.00 | 0.01 | 0.00 | 85 | 1029.6 |
| 20260510031405 | 58 | 176 | 3.0 | 3.0 | 0.00 | 0.01 | 0.00 | 85 | 1029.7 |
| 20260510030905 | 58 | 184 | 3.0 | 3.0 | 0.00 | 0.01 | 0.00 | 86 | 1029.8 |
| 20260510030404 | 58 | 179 | 2.0 | 3.0 | 0.00 | 0.01 | 0.00 | 87 | 1029.7 |
| 20260510025904 | 57 | 173 | 1.0 | 3.0 | 0.00 | 0.01 | 0.00 | 87 | 1029.8 |
| 20260510025405 | 57 | 179 | 2.0 | 5.0 | 0.00 | 0.01 | 0.00 | 88 | 1029.8 |
| 20260510024905 | 56 | 152 | 1.0 | 6.0 | 0.00 | 0.01 | 0.00 | 88 | 1029.9 |
| 20260510024404 | 56 | 145 | 3.0 | 5.0 | 0.00 | 0.01 | 0.00 | 88 | 1030.0 |
| 20260510023904 | 55 | 182 | 2.0 | 3.0 | 0.00 | 0.01 | 0.00 | 89 | 1030.1 |
| 20260510023405 | 55 | 193 | 3.0 | 6.0 | 0.00 | 0.01 | 0.00 | 89 | 1030.2 |
| 20260510022904 | 55 | 167 | 1.0 | 2.0 | 0.00 | 0.01 | 0.00 | 89 | 1030.2 |
| 20260510022404 | 55 | 166 | 1.0 | 3.0 | 0.00 | 0.01 | 0.00 | 89 | 1030.3 |
| 20260510021904 | 55 | 164 | 3.0 | 5.0 | 0.00 | 0.01 | 0.00 | 89 | 1030.4 |
| 20260510021404 | 55 | 237 | 2.0 | 3.0 | 0.00 | 0.01 | 0.00 | 89 | 1030.5 |
| 20260510020904 | 55 | 237 | 2.0 | 3.0 | 0.00 | 0.01 | 0.00 | 89 | 1030.6 |
| 20260510020405 | 54 | 152 | 1.0 | 3.0 | 0.00 | 0.01 | 0.00 | 89 | 1030.6 |
| 20260510015905 | 54 | 148 | 1.0 | 3.0 | 0.00 | 0.01 | 0.00 | 90 | 1030.7 |
| 20260510015404 | 54 | 149 | 2.0 | 3.0 | 0.00 | 0.01 | 0.00 | 90 | 1030.8 |
| 20260510014904 | 53 | 150 | 2.0 | 3.0 | 0.00 | 0.01 | 0.00 | 90 | 1030.8 |
| 20260510014404 | 53 | 153 | 1.0 | 3.0 | 0.00 | 0.01 | 0.00 | 90 | 1030.9 |
| 20260510013904 | 53 | 153 | 1.0 | 5.0 | 0.00 | 0.01 | 0.00 | 90 | 1031.0 |
| 20260510013404 | 53 | 155 | 2.0 | 3.0 | 0.00 | 0.01 | 0.00 | 91 | 1031.0 |
| 20260510012904 | 53 | 134 | 2.0 | 3.0 | 0.00 | 0.01 | 0.00 | 90 | 1031.1 |
| 20260510012404 | 53 | 128 | 3.0 | 3.0 | 0.00 | 0.01 | 0.00 | 91 | 1031.1 |
| 20260510011904 | 53 | 114 | 2.0 | 3.0 | 0.00 | 0.01 | 0.00 | 91 | 1031.1 |
| 20260510011404 | 53 | 116 | 3.0 | 8.0 | 0.00 | 0.01 | 0.00 | 91 | 1031.2 |
| 20260510010904 | 52 | 163 | 1.0 | 2.0 | 0.00 | 0.01 | 0.00 | 91 | 1031.1 |
| 20260510010405 | 52 | 162 | 1.0 | 2.0 | 0.00 | 0.01 | 0.00 | 91 | 1031.2 |
| 20260510005905 | 52 | 161 | 1.0 | 2.0 | 0.00 | 0.01 | 0.00 | 91 | 1031.2 |
| 20260510005404 | 52 | 161 | 1.0 | 3.0 | 0.00 | 0.01 | 0.00 | 91 | 1031.1 |
| 20260510004904 | 52 | 161 | 2.0 | 3.0 | 0.00 | 0.01 | 0.00 | 91 | 1031.2 |
| 20260510004404 | 52 | 140 | 3.0 | 5.0 | 0.00 | 0.01 | 0.00 | 92 | 1031.2 |
| 20260510003904 | 52 | 134 | 2.0 | 3.0 | 0.00 | 0.01 | 0.00 | 92 | 1031.2 |
| 20260510003405 | 52 | 135 | 2.0 | 3.0 | 0.00 | 0.01 | 0.00 | 92 | 1031.2 |
| 20260510002905 | 52 | 137 | 4.0 | 7.0 | 0.00 | 0.01 | 0.00 | 92 | 1031.2 |
| 20260510002404 | 51 | 110 | 3.0 | 5.0 | 0.00 | 0.01 | 0.00 | 92 | 1031.2 |
| 20260510001904 | 51 | 131 | 4.0 | 5.0 | 0.00 | 0.01 | 0.00 | 92 | 1031.1 |
| 20260510001404 | 51 | 198 | 2.0 | 3.0 | 0.00 | 0.01 | 0.00 | 92 | 1031.1 |
| 20260510000904 | 51 | 203 | 3.0 | 3.0 | 0.00 | 0.01 | 0.00 | 92 | 1031.1 |
| 20260510000404 | 51 | 198 | 3.0 | 5.0 | 0.00 | 0.01 | 0.00 | 92 | 1031.1 |
| 20260509235904 | 51 | 161 | 2.0 | 3.0 | 0.00 | 0.01 | 0.00 | 92 | 1031.1 |
| 20260509235404 | 51 | 156 | 2.0 | 3.0 | 0.00 | 0.01 | 0.00 | 92 | 1031.2 |
| 20260509234904 | 51 | 155 | 3.0 | 6.0 | 0.00 | 0.01 | 0.00 | 92 | 1031.2 |
| 20260509234404 | 51 | 134 | 3.0 | 5.0 | 0.00 | 0.01 | 0.00 | 92 | 1031.2 |
| 20260509233905 | 51 | 143 | 3.0 | 5.0 | 0.00 | 0.01 | 0.00 | 92 | 1031.2 |
| 20260509233404 | 51 | 134 | 3.0 | 6.0 | 0.00 | 0.01 | 0.00 | 92 | 1031.2 |
| 20260509232904 | 51 | 145 | 2.0 | 3.0 | 0.00 | 0.01 | 0.01 | 92 | 1031.2 |
| 20260509232404 | 51 | 146 | 4.0 | 6.0 | 0.00 | 0.01 | 0.01 | 92 | 1031.1 |
| 20260509231904 | 51 | 155 | 4.0 | 6.0 | 0.00 | 0.01 | 0.01 | 92 | 1031.1 |
| 20260509231404 | 51 | 158 | 4.0 | 6.0 | 0.00 | 0.01 | 0.01 | 93 | 1031.0 |
| 20260509230904 | 51 | 151 | 4.0 | 6.0 | 0.00 | 0.01 | 0.01 | 93 | 1031.0 |
| 20260509230404 | 51 | 148 | 3.0 | 5.0 | 0.00 | 0.01 | 0.01 | 93 | 1031.0 |
| 20260509225903 | 51 | 153 | 4.0 | 5.0 | 0.00 | 0.01 | 0.01 | 93 | 1030.9 |
| 20260509225404 | 51 | 168 | 4.0 | 7.0 | 0.00 | 0.01 | 0.01 | 93 | 1030.9 |
| 20260509224904 | 51 | 159 | 4.0 | 9.0 | 0.00 | 0.01 | 0.01 | 93 | 1030.8 |
| 20260509224404 | 51 | 141 | 3.0 | 5.0 | 0.00 | 0.01 | 0.01 | 93 | 1030.8 |
| 20260509223904 | 51 | 169 | 3.0 | 3.0 | 0.00 | 0.01 | 0.01 | 93 | 1030.8 |
| 20260509223403 | 50 | 166 | 4.0 | 7.0 | 0.00 | 0.01 | 0.01 | 93 | 1030.7 |
| 20260509222904 | 50 | 175 | 5.0 | 6.0 | 0.00 | 0.01 | 0.01 | 93 | 1030.7 |
| 20260509222404 | 50 | 172 | 3.0 | 3.0 | 0.00 | 0.01 | 0.01 | 93 | 1030.6 |
| 20260509221904 | 50 | 162 | 4.0 | 6.0 | 0.00 | 0.01 | 0.01 | 93 | 1030.6 |
| 20260509221404 | 50 | 165 | 3.0 | 5.0 | 0.00 | 0.01 | 0.01 | 93 | 1030.6 |
| 20260509220904 | 50 | 167 | 2.0 | 3.0 | 0.00 | 0.01 | 0.01 | 93 | 1030.5 |
| 20260509220404 | 50 | 167 | 2.0 | 5.0 | 0.00 | 0.01 | 0.01 | 93 | 1030.4 |
| 20260509215904 | 50 | 167 | 3.0 | 5.0 | 0.00 | 0.01 | 0.01 | 93 | 1030.5 |
| 20260509215404 | 50 | 171 | 3.0 | 3.0 | 0.00 | 0.01 | 0.01 | 93 | 1030.5 |
| 20260509214905 | 50 | 169 | 1.0 | 3.0 | 0.00 | 0.01 | 0.01 | 93 | 1030.4 |
| 20260509214403 | 50 | 170 | 1.0 | 3.0 | 0.00 | 0.01 | 0.01 | 93 | 1030.3 |
| 20260509213903 | 50 | 169 | 2.0 | 3.0 | 0.00 | 0.01 | 0.01 | 93 | 1030.2 |
| 20260509213405 | 50 | 172 | 3.0 | 5.0 | 0.00 | 0.01 | 0.01 | 93 | 1030.1 |
| 20260509212905 | 50 | 170 | 3.0 | 5.0 | 0.00 | 0.01 | 0.01 | 93 | 1030.1 |
| 20260509212406 | 50 | 160 | 2.0 | 3.0 | 0.00 | 0.01 | 0.01 | 93 | 1030.1 |
| 20260509211905 | 50 | 161 | 2.0 | 3.0 | 0.00 | 0.01 | 0.01 | 93 | 1030.0 |
| 20260509211405 | 50 | 165 | 3.0 | 3.0 | 0.00 | 0.01 | 0.01 | 93 | 1030.0 |
| 20260509210906 | 50 | 167 | 2.0 | 5.0 | 0.00 | 0.01 | 0.01 | 93 | 1029.9 |
| 20260509210406 | 50 | 169 | 3.0 | 6.0 | 0.00 | 0.01 | 0.01 | 99 | 1029.9 |
| 20260509205906 | 50 | 185 | 3.0 | 5.0 | 0.00 | 0.01 | 0.01 | 99 | 1029.8 |
| 20260509205405 | 50 | 182 | 3.0 | 5.0 | 0.00 | 0.01 | 0.01 | 95 | 1029.8 |
| 20260509204906 | 50 | 184 | 2.0 | 3.0 | 0.00 | 0.01 | 0.01 | 96 | 1029.8 |
| 20260509204405 | 50 | 184 | 3.0 | 5.0 | 0.00 | 0.01 | 0.01 | 93 | 1029.8 |
| 20260509203905 | 50 | 193 | 3.0 | 5.0 | 0.00 | 0.01 | 0.01 | 100 | 1029.7 |
| 20260509203405 | 50 | 171 | 2.0 | 3.0 | 0.00 | 0.01 | 0.01 | 93 | 1029.7 |
| 20260509202906 | 50 | 184 | 3.0 | 5.0 | 0.00 | 0.01 | 0.01 | 93 | 1029.6 |
| 20260509202405 | 50 | 199 | 2.0 | 5.0 | 0.00 | 0.01 | 0.01 | 98 | 1029.6 |
| 20260509201905 | 50 | 195 | 3.0 | 6.0 | 0.00 | 0.01 | 0.01 | 100 | 1029.5 |
| 20260509201406 | 50 | 178 | 5.0 | 6.0 | 0.00 | 0.01 | 0.01 | 96 | 1029.5 |
| 20260509200905 | 50 | 183 | 3.0 | 6.0 | 0.00 | 0.01 | 0.01 | 97 | 1029.5 |
| 20260509200405 | 50 | 188 | 3.0 | 5.0 | 0.00 | 0.01 | 0.01 | 93 | 1029.4 |
| 20260509195905 | 50 | 178 | 4.0 | 8.0 | 0.00 | 0.01 | 0.01 | 93 | 1029.3 |
| 20260509195406 | 50 | 171 | 2.0 | 3.0 | 0.00 | 0.01 | 0.01 | 93 | 1029.4 |
| 20260509194906 | 50 | 168 | 4.0 | 5.0 | 0.00 | 0.01 | 0.01 | 93 | 1029.3 |
| 20260509194406 | 50 | 164 | 2.0 | 3.0 | 0.00 | 0.02 | 0.01 | 93 | 1029.3 |
| 20260509193905 | 50 | 160 | 2.0 | 3.0 | 0.00 | 0.02 | 0.01 | 93 | 1029.2 |
| 20260509193405 | 50 | 153 | 3.0 | 5.0 | 0.00 | 0.02 | 0.01 | 93 | 1029.2 |
| 20260509192905 | 51 | 181 | 4.0 | 6.0 | 0.00 | 0.02 | 0.01 | 93 | 1029.1 |
| 20260509192405 | 51 | 178 | 4.0 | 5.0 | 0.00 | 0.02 | 0.01 | 93 | 1029.1 |
| 20260509191905 | 51 | 179 | 5.0 | 6.0 | 0.00 | 0.02 | 0.01 | 93 | 1029.0 |
| 20260509191405 | 51 | 165 | 3.0 | 5.0 | 0.00 | 0.02 | 0.01 | 93 | 1029.0 |
| 20260509190906 | 51 | 174 | 3.0 | 5.0 | 0.00 | 0.02 | 0.01 | 93 | 1029.0 |
| 20260509190405 | 51 | 179 | 3.0 | 5.0 | 0.00 | 0.02 | 0.01 | 93 | 1028.9 |
| 20260509185905 | 51 | 180 | 3.0 | 5.0 | 0.00 | 0.02 | 0.01 | 93 | 1028.8 |
| 20260509185405 | 51 | 178 | 3.0 | 3.0 | 0.00 | 0.02 | 0.01 | 93 | 1028.8 |
| 20260509184905 | 51 | 178 | 3.0 | 3.0 | 0.00 | 0.02 | 0.01 | 92 | 1028.8 |
| 20260509184405 | 51 | 177 | 2.0 | 3.0 | 0.00 | 0.02 | 0.01 | 92 | 1028.7 |
| 20260509183905 | 51 | 176 | 2.0 | 3.0 | 0.00 | 0.02 | 0.01 | 92 | 1028.7 |
| 20260509183406 | 51 | 174 | 2.0 | 3.0 | 0.00 | 0.02 | 0.01 | 92 | 1028.7 |
| 20260509182905 | 51 | 173 | 1.0 | 3.0 | 0.00 | 0.02 | 0.01 | 92 | 1028.7 |
| 20260509182405 | 50 | 172 | 2.0 | 3.0 | 0.00 | 0.02 | 0.01 | 92 | 1028.7 |
| 20260509181905 | 50 | 173 | 1.0 | 3.0 | 0.00 | 0.02 | 0.01 | 92 | 1028.7 |
| 20260509181406 | 50 | 173 | 1.0 | 2.0 | 0.00 | 0.02 | 0.01 | 92 | 1028.8 |
| 20260509180905 | 50 | 173 | 1.0 | 2.0 | 0.00 | 0.02 | 0.01 | 92 | 1028.7 |
| 20260509180405 | 50 | 173 | 1.0 | 3.0 | 0.00 | 0.02 | 0.01 | 92 | 1028.7 |
| 20260509175905 | 50 | 171 | 2.0 | 3.0 | 0.00 | 0.02 | 0.01 | 91 | 1028.7 |
| 20260509175406 | 50 | 170 | 2.0 | 3.0 | 0.00 | 0.02 | 0.01 | 91 | 1028.6 |
| 20260509174905 | 49 | 169 | 4.0 | 6.0 | 0.00 | 0.02 | 0.01 | 91 | 1028.6 |
| 20260509174405 | 49 | 178 | 3.0 | 3.0 | 0.00 | 0.02 | 0.01 | 91 | 1028.7 |
| 20260509173905 | 49 | 182 | 2.0 | 3.0 | 0.00 | 0.02 | 0.01 | 91 | 1028.6 |
| 20260509173405 | 49 | 182 | 2.0 | 3.0 | 0.00 | 0.02 | 0.01 | 91 | 1028.6 |
| 20260509172905 | 49 | 182 | 3.0 | 5.0 | 0.01 | 0.02 | 0.01 | 91 | 1028.6 |
| 20260509172405 | 49 | 183 | 3.0 | 5.0 | 0.01 | 0.02 | 0.01 | 91 | 1028.6 |
| 20260509171905 | 49 | 182 | 5.0 | 6.0 | 0.01 | 0.03 | 0.01 | 91 | 1028.6 |
| 20260509171405 | 49 | 190 | 5.0 | 6.0 | 0.01 | 0.03 | 0.01 | 91 | 1028.6 |
| 20260509170905 | 49 | 193 | 3.0 | 5.0 | 0.01 | 0.04 | 0.01 | 91 | 1028.6 |
| 20260509170405 | 49 | 194 | 3.0 | 6.0 | 0.01 | 0.04 | 0.01 | 91 | 1028.6 |
| 20260509165905 | 49 | 192 | 3.0 | 5.0 | 0.01 | 0.04 | 0.01 | 91 | 1028.7 |
| 20260509165405 | 49 | 193 | 3.0 | 5.0 | 0.01 | 0.04 | 0.01 | 90 | 1028.6 |
| 20260509164905 | 49 | 199 | 2.0 | 3.0 | 0.01 | 0.04 | 0.01 | 91 | 1028.7 |
| 20260509164405 | 49 | 198 | 3.0 | 5.0 | 0.01 | 0.04 | 0.01 | 91 | 1028.7 |
| 20260509163905 | 48 | 208 | 3.0 | 5.0 | 0.01 | 0.04 | 0.01 | 90 | 1028.7 |
| 20260509163405 | 48 | 207 | 3.0 | 3.0 | 0.01 | 0.04 | 0.01 | 90 | 1028.6 |
| 20260509162905 | 48 | 210 | 2.0 | 3.0 | 0.00 | 0.03 | 0.00 | 90 | 1028.5 |
| 20260509162405 | 48 | 209 | 1.0 | 2.0 | 0.00 | 0.03 | 0.00 | 90 | 1028.5 |
| 20260509161905 | 48 | 209 | 2.0 | 3.0 | 0.00 | 0.03 | 0.00 | 90 | 1028.5 |
| 20260509161406 | 48 | 209 | 2.0 | 3.0 | 0.00 | 0.03 | 0.00 | 90 | 1028.5 |
| 20260509160905 | 48 | 209 | 2.0 | 3.0 | 0.00 | 0.03 | 0.00 | 90 | 1028.5 |
| 20260509160405 | 48 | 209 | 3.0 | 3.0 | 0.00 | 0.03 | 0.00 | 90 | 1028.5 |
| 20260509155906 | 48 | 211 | 2.0 | 3.0 | 0.00 | 0.04 | 0.00 | 90 | 1028.5 |
| 20260509155405 | 49 | 211 | 1.0 | 3.0 | 0.00 | 0.04 | 0.00 | 90 | 1028.4 |
| 20260509154905 | 49 | 211 | 2.0 | 3.0 | 0.00 | 0.04 | 0.00 | 90 | 1028.4 |
| 20260509154405 | 49 | 211 | 2.0 | 3.0 | 0.00 | 0.04 | 0.00 | 90 | 1028.4 |
| 20260509153905 | 49 | 211 | 2.0 | 3.0 | 0.00 | 0.04 | 0.00 | 90 | 1028.4 |
| 20260509153405 | 48 | 211 | 2.0 | 3.0 | 0.00 | 0.04 | 0.00 | 90 | 1028.4 |
| 20260509152905 | 48 | 211 | 2.0 | 3.0 | 0.00 | 0.04 | 0.00 | 89 | 1028.4 |
| 20260509152405 | 48 | 211 | 2.0 | 3.0 | 0.00 | 0.04 | 0.00 | 89 | 1028.4 |
| 20260509151905 | 48 | 211 | 2.0 | 3.0 | 0.00 | 0.04 | 0.00 | 89 | 1028.4 |
| 20260509151405 | 48 | 212 | 2.0 | 3.0 | 0.00 | 0.04 | 0.00 | 89 | 1028.5 |
| 20260509150905 | 48 | 212 | 2.0 | 3.0 | 0.00 | 0.04 | 0.00 | 89 | 1028.5 |
| 20260509150405 | 48 | 212 | 3.0 | 3.0 | 0.00 | 0.04 | 0.00 | 89 | 1028.5 |
| 20260509145905 | 48 | 214 | 2.0 | 3.0 | 0.00 | 0.04 | 0.00 | 89 | 1028.5 |
| 20260509145405 | 48 | 215 | 1.0 | 2.0 | 0.00 | 0.04 | 0.00 | 89 | 1028.6 |
| 20260509144905 | 48 | 215 | 1.0 | 2.0 | 0.00 | 0.04 | 0.00 | 89 | 1028.6 |
| 20260509144405 | 48 | 215 | 1.0 | 2.0 | 0.00 | 0.04 | 0.00 | 89 | 1028.6 |
| 20260509143905 | 48 | 215 | 2.0 | 3.0 | 0.00 | 0.04 | 0.00 | 89 | 1028.6 |
| 20260509143405 | 48 | 215 | 0.0 | 2.0 | 0.00 | 0.04 | 0.00 | 89 | 1028.6 |
| 20260509142905 | 48 | 215 | 1.0 | 2.0 | 0.00 | 0.04 | 0.00 | 89 | 1028.6 |
| 20260509142405 | 48 | 215 | 1.0 | 3.0 | 0.00 | 0.04 | 0.00 | 89 | 1028.6 |
| 20260509141905 | 48 | 215 | 2.0 | 3.0 | 0.00 | 0.04 | 0.00 | 89 | 1028.6 |
| 20260509141405 | 49 | 215 | 2.0 | 2.0 | 0.00 | 0.04 | 0.00 | 89 | 1028.6 |
| 20260509140905 | 49 | 215 | 1.0 | 2.0 | 0.00 | 0.04 | 0.00 | 89 | 1028.7 |
| 20260509140405 | 49 | 215 | 0.0 | 1.0 | 0.00 | 0.04 | 0.00 | 89 | 1028.6 |
| 20260509135905 | 49 | 215 | 1.0 | 3.0 | 0.00 | 0.04 | 0.00 | 89 | 1028.6 |
| 20260509135405 | 49 | 215 | 2.0 | 3.0 | 0.00 | 0.04 | 0.00 | 88 | 1028.5 |
| 20260509134905 | 49 | 215 | 1.0 | 2.0 | 0.00 | 0.04 | 0.00 | 88 | 1028.6 |
| 20260509134405 | 49 | 215 | 2.0 | 3.0 | 0.00 | 0.04 | 0.00 | 88 | 1028.6 |
| 20260509133904 | 50 | 215 | 2.0 | 3.0 | 0.00 | 0.04 | 0.00 | 88 | 1028.6 |
| 20260509133405 | 50 | 215 | 2.0 | 3.0 | 0.00 | 0.04 | 0.00 | 89 | 1028.6 |
| 20260509132905 | 50 | 215 | 0.0 | 1.0 | 0.00 | 0.04 | 0.00 | 88 | 1028.7 |